DNO229 DNAA-LICC

Flight info

Callsign DNO229
Flight time 4h 10m
Altitude 39000
Route OXORU1Q OXORU UV456 KUA UR778 KAN UG858 DEKTU/N0467F400 M727 ZAW M600 SARKI/N0427F300 N982 DIRKA DCT NELDA
Aircraft A346/H-SDE2E3FGHIJ3J4J5M1RWXY/LB1D1

Departure

Time 2026-04-30 14:43
Airport Nnamdi Azikiwe International Airport (DNAA)

Arrival

Time 2026-04-30 18:53
Airport Catania-Fontanarossa Airport (LICC)
Time Latitude Longitude Altitude Speed Heading
2026-04-30 14:42 9.04659 7.22220 6555 ft 266 kts 11°
2026-04-30 14:43 9.06517 7.22561 7143 ft 274 kts 12°
2026-04-30 14:43 9.08403 7.22902 7924 ft 277 kts 12°
2026-04-30 14:43 9.10306 7.23246 8745 ft 279 kts 13°
2026-04-30 14:43 9.12227 7.23593 9550 ft 282 kts 13°
2026-04-30 14:44 9.14167 7.23945 10299 ft 287 kts 13°
2026-04-30 14:44 9.16180 7.24316 10749 ft 302 kts 13°
2026-04-30 14:44 9.18312 7.24708 11122 ft 321 kts 13°
2026-04-30 14:44 9.20570 7.25121 11516 ft 339 kts 13°
2026-04-30 14:45 9.22954 7.25556 11946 ft 355 kts 13°
2026-04-30 14:45 9.25415 7.26003 12616 ft 362 kts 13°
2026-04-30 14:45 9.27912 7.26452 13455 ft 366 kts 13°
2026-04-30 14:45 9.30431 7.26907 14197 ft 370 kts 13°
2026-04-30 14:46 9.32982 7.27367 14856 ft 376 kts 13°
2026-04-30 14:46 9.35573 7.27835 15509 ft 381 kts 13°
2026-04-30 14:46 9.38203 7.28310 16160 ft 387 kts 13°
2026-04-30 14:46 9.39966 7.28629 16579 ft 390 kts 13°
2026-04-30 14:47 9.43577 7.29284 17407 ft 398 kts 13°
2026-04-30 14:47 9.46329 7.29783 18013 ft 404 kts 13°
2026-04-30 14:47 9.49115 7.30288 18537 ft 410 kts 13°
2026-04-30 14:47 9.51940 7.30802 19065 ft 414 kts 13°
2026-04-30 14:48 9.54791 7.31319 19637 ft 418 kts 13°
2026-04-30 14:48 9.57662 7.31840 20210 ft 420 kts 13°
2026-04-30 14:48 9.59573 7.32186 20596 ft 422 kts 13°
2026-04-30 14:48 9.62475 7.32713 21160 ft 426 kts 13°
2026-04-30 14:49 9.65401 7.33244 21711 ft 429 kts 13°
2026-04-30 14:49 9.68349 7.33780 22261 ft 432 kts 13°
2026-04-30 14:49 9.71318 7.34319 22809 ft 435 kts 13°
2026-04-30 14:49 9.74310 7.34863 23337 ft 438 kts 13°
2026-04-30 14:50 9.80349 7.35962 24222 ft 444 kts 13°
2026-04-30 14:50 9.83397 7.36516 24679 ft 446 kts 13°
2026-04-30 14:51 9.89594 7.37408 25553 ft 454 kts
2026-04-30 14:51 9.92744 7.37739 25993 ft 456 kts
2026-04-30 14:51 9.99102 7.38393 26857 ft 462 kts
2026-04-30 14:52 10.02312 7.38725 27287 ft 465 kts
2026-04-30 14:52 10.08788 7.39400 28132 ft 471 kts
2026-04-30 14:52 10.12054 7.39741 28553 ft 474 kts
2026-04-30 14:53 10.18655 7.40436 29362 ft 480 kts
2026-04-30 14:53 10.21981 7.40784 29775 ft 482 kts
2026-04-30 14:54 10.28645 7.41481 30795 ft 479 kts
2026-04-30 14:54 10.35223 7.42171 31799 ft 477 kts
2026-04-30 14:55 10.41862 7.42870 32793 ft 476 kts
2026-04-30 14:55 10.45101 7.43211 33287 ft 475 kts
2026-04-30 14:55 10.51649 7.43987 34224 ft 472 kts 11°
2026-04-30 14:56 10.57985 7.45628 35148 ft 468 kts 20°
2026-04-30 14:56 10.63917 7.48276 36070 ft 464 kts 29°
2026-04-30 14:57 10.66682 7.49946 36507 ft 462 kts 34°
2026-04-30 14:57 10.71922 7.53705 37410 ft 460 kts 36°
2026-04-30 14:58 10.77118 7.57531 38085 ft 462 kts 36°
2026-04-30 14:58 10.79725 7.59447 38379 ft 464 kts 36°
2026-04-30 14:58 10.84964 7.63289 38872 ft 465 kts 36°
2026-04-30 15:00 10.98091 7.72928 38872 ft 465 kts 37°
2026-04-30 15:01 11.08579 7.80632 38869 ft 464 kts 36°
2026-04-30 15:01 11.16444 7.86417 38871 ft 465 kts 36°
2026-04-30 15:02 11.21696 7.90280 38860 ft 466 kts 37°
2026-04-30 15:03 11.34927 7.99896 38853 ft 466 kts 35°
2026-04-30 15:04 11.48162 8.09435 38839 ft 465 kts 35°
2026-04-30 15:06 11.61399 8.18999 38825 ft 467 kts 36°
2026-04-30 15:07 11.71954 8.26652 38817 ft 467 kts 36°
2026-04-30 15:08 11.82555 8.34335 38809 ft 467 kts 36°
2026-04-30 15:09 11.95776 8.43916 38810 ft 467 kts 36°
2026-04-30 15:10 12.06993 8.50642 38805 ft 469 kts 25°
2026-04-30 15:11 12.25337 8.57569 38813 ft 469 kts 20°
2026-04-30 15:13 12.40696 8.63202 38811 ft 469 kts 21°
2026-04-30 15:14 12.62192 8.71110 38807 ft 469 kts 21°
2026-04-30 15:17 12.89747 8.81283 38811 ft 467 kts 21°
2026-04-30 15:19 13.14021 8.90575 38808 ft 465 kts 21°
2026-04-30 17:39 30.39941 12.60394 40934 ft 437 kts 349°
2026-04-30 17:42 30.70356 12.60924 40942 ft 437 kts 348°
2026-04-30 17:43 30.85532 12.61190 40940 ft 437 kts 348°
2026-04-30 17:44 31.03756 12.61511 40949 ft 436 kts 349°
2026-04-30 17:47 31.31025 12.61993 40952 ft 435 kts 349°
2026-04-30 17:48 31.52230 12.62367 40962 ft 435 kts 349°
2026-04-30 17:50 31.76423 12.62801 40975 ft 436 kts 349°
2026-04-30 17:52 31.94618 12.63130 40971 ft 436 kts 349°
2026-04-30 17:54 32.21938 12.63623 40970 ft 436 kts 350°
2026-04-30 17:56 32.46212 12.64064 40964 ft 437 kts 350°
2026-04-30 17:58 32.64445 12.64397 40973 ft 437 kts 351°
2026-04-30 18:00 32.87957 12.68360 40973 ft 460 kts
2026-04-30 18:01 33.03229 12.74060 41009 ft 459 kts
2026-04-30 18:02 33.21513 12.80783 40977 ft 458 kts
2026-04-30 18:04 33.39813 12.87499 40980 ft 459 kts
2026-04-30 18:06 33.64292 12.96535 40991 ft 459 kts
2026-04-30 18:08 33.85614 13.04846 40991 ft 462 kts 10°
2026-04-30 18:10 34.09874 13.14892 40992 ft 460 kts 10°
2026-04-30 18:11 34.22000 13.19927 40572 ft 460 kts 10°
2026-04-30 18:11 34.31079 13.23704 39874 ft 460 kts 10°
2026-04-30 18:12 34.40081 13.27846 39171 ft 462 kts 13°
2026-04-30 18:13 34.46055 13.30714 38712 ft 461 kts 13°
2026-04-30 18:13 34.54014 13.34531 37667 ft 463 kts 13°
2026-04-30 18:14 34.61034 13.37898 36497 ft 465 kts 14°
2026-04-30 18:15 34.70099 13.42257 35075 ft 469 kts 14°
2026-04-30 18:15 34.79206 13.46645 33699 ft 472 kts 15°
2026-04-30 18:16 34.85339 13.49607 32697 ft 475 kts 15°
2026-04-30 18:16 34.91499 13.52589 31737 ft 478 kts 16°
2026-04-30 18:17 34.94581 13.54083 31250 ft 474 kts 16°
2026-04-30 18:17 34.97640 13.55570 30780 ft 470 kts 16°
2026-04-30 18:17 35.03717 13.58523 30036 ft 471 kts 16°
2026-04-30 18:18 35.06774 13.60008 29688 ft 473 kts 16°
2026-04-30 18:18 35.09831 13.61495 29094 ft 471 kts 16°
2026-04-30 18:18 35.12859 13.62971 28532 ft 466 kts 16°
2026-04-30 18:18 35.15857 13.64435 27966 ft 461 kts 16°
2026-04-30 18:19 35.18822 13.65882 27426 ft 457 kts 16°
2026-04-30 18:19 35.21760 13.67316 26887 ft 453 kts 16°
2026-04-30 18:19 35.24678 13.68741 26369 ft 449 kts 16°
2026-04-30 18:19 35.27566 13.70153 25827 ft 445 kts 16°
2026-04-30 18:20 35.30430 13.71554 25332 ft 441 kts 16°
2026-04-30 18:20 35.33269 13.72943 24826 ft 438 kts 16°
2026-04-30 18:20 35.36084 13.74321 24343 ft 434 kts 17°
2026-04-30 18:20 35.38890 13.75697 23942 ft 430 kts 17°
2026-04-30 18:21 35.41687 13.77068 23725 ft 430 kts 17°
2026-04-30 18:21 35.44458 13.78428 23474 ft 429 kts 17°
2026-04-30 18:21 35.47187 13.79769 23294 ft 427 kts 16°
2026-04-30 18:21 35.49935 13.81122 22838 ft 424 kts 16°
2026-04-30 18:22 35.52662 13.82463 22382 ft 420 kts 17°
2026-04-30 18:22 35.58062 13.85122 21512 ft 415 kts 17°
2026-04-30 18:22 35.60738 13.86442 21089 ft 412 kts 17°
2026-04-30 18:23 35.63397 13.87754 20665 ft 410 kts 17°
2026-04-30 18:23 35.66031 13.89054 20251 ft 407 kts 17°
2026-04-30 18:23 35.68656 13.90351 19841 ft 405 kts 17°
2026-04-30 18:23 35.71263 13.91640 19436 ft 403 kts 17°
2026-04-30 18:24 35.76437 13.94201 18644 ft 398 kts 17°
2026-04-30 18:24 35.79003 13.95473 18254 ft 397 kts 17°
2026-04-30 18:24 35.81557 13.96739 17790 ft 394 kts 17°
2026-04-30 18:25 35.84092 13.97998 17350 ft 391 kts 17°
2026-04-30 18:25 35.89107 14.00489 16480 ft 385 kts 17°
2026-04-30 18:25 35.91584 14.01720 16051 ft 382 kts 17°
2026-04-30 18:26 35.96485 14.04160 15227 ft 377 kts 17°
2026-04-30 18:26 35.98913 14.05369 14817 ft 374 kts 17°
2026-04-30 18:26 36.01319 14.06568 14414 ft 372 kts 17°
2026-04-30 18:27 36.06083 14.08945 13589 ft 367 kts 18°
2026-04-30 18:27 36.08442 14.10122 13156 ft 364 kts 18°
2026-04-30 18:28 36.13137 14.12469 13030 ft 364 kts 18°
2026-04-30 18:28 36.15487 14.13645 12899 ft 364 kts 18°
2026-04-30 18:28 36.20086 14.15953 12023 ft 346 kts 18°
2026-04-30 18:29 36.22284 14.17050 11618 ft 335 kts 18°
2026-04-30 18:29 36.28647 14.19234 10379 ft 306 kts
2026-04-30 18:30 36.32097 14.19943 9600 ft 298 kts
2026-04-30 18:30 36.36809 14.20964 8460 ft 290 kts
2026-04-30 18:31 36.38788 14.21408 7987 ft 287 kts
2026-04-30 18:31 36.42691 14.22295 7058 ft 283 kts
2026-04-30 18:32 36.46411 14.23157 6766 ft 262 kts
2026-04-30 18:32 36.48201 14.23571 6674 ft 261 kts
2026-04-30 18:32 36.51776 14.24397 6509 ft 261 kts
2026-04-30 18:33 36.53558 14.24811 6407 ft 260 kts
2026-04-30 18:33 36.57111 14.25634 6209 ft 259 kts
2026-04-30 18:33 36.58883 14.26047 6108 ft 259 kts
2026-04-30 18:34 36.60651 14.26460 6010 ft 258 kts
2026-04-30 18:34 36.64186 14.27279 5808 ft 259 kts
2026-04-30 18:34 36.65932 14.27686 5709 ft 258 kts
2026-04-30 18:35 36.67697 14.28099 5611 ft 258 kts
2026-04-30 18:35 36.69464 14.28510 5512 ft 258 kts
2026-04-30 18:35 36.71228 14.28921 5409 ft 257 kts
2026-04-30 18:36 36.74741 14.29741 5210 ft 257 kts 10°
2026-04-30 18:36 36.76496 14.30150 5114 ft 256 kts
2026-04-30 18:36 36.79999 14.30968 5028 ft 256 kts 10°
2026-04-30 18:37 36.81751 14.31377 5036 ft 256 kts 10°
2026-04-30 18:37 36.83508 14.31787 5027 ft 257 kts 10°
2026-04-30 18:37 36.85262 14.32197 5032 ft 256 kts 10°
2026-04-30 18:37 36.87016 14.32607 5031 ft 257 kts 10°
2026-04-30 18:38 36.88770 14.33017 5039 ft 256 kts 10°
2026-04-30 18:38 36.90526 14.33429 5033 ft 256 kts 10°
2026-04-30 18:38 36.92278 14.33840 5038 ft 256 kts 10°
2026-04-30 18:38 36.94031 14.34250 5035 ft 256 kts 10°
2026-04-30 18:39 36.95787 14.34661 5038 ft 257 kts 10°
2026-04-30 18:39 36.97541 14.35072 5035 ft 257 kts 10°
2026-04-30 18:39 36.99297 14.35485 5044 ft 257 kts 10°
2026-04-30 18:39 37.01052 14.35897 5036 ft 256 kts 10°
2026-04-30 18:40 37.02803 14.36308 5040 ft 256 kts 10°
2026-04-30 18:40 37.04566 14.36722 5038 ft 256 kts 10°
2026-04-30 18:40 37.06317 14.37133 5041 ft 256 kts 10°
2026-04-30 18:40 37.08080 14.37554 5036 ft 256 kts 12°
2026-04-30 18:41 37.09718 14.38411 5025 ft 257 kts 30°
2026-04-30 18:41 37.11203 14.39668 5044 ft 257 kts 33°
2026-04-30 18:41 37.12663 14.40964 5039 ft 257 kts 33°
2026-04-30 18:41 37.14116 14.42223 5038 ft 257 kts 33°
2026-04-30 18:42 37.15598 14.43482 5039 ft 257 kts 32°
2026-04-30 18:42 37.18575 14.45948 5037 ft 257 kts 32°
2026-04-30 18:42 37.20073 14.47178 5036 ft 257 kts 32°
2026-04-30 18:45 37.35081 14.59411 5053 ft 257 kts 31°
2026-04-30 18:45 37.36579 14.60637 5046 ft 257 kts 32°
2026-04-30 18:45 37.38061 14.61847 5053 ft 257 kts 32°
2026-04-30 18:46 37.39566 14.63080 5057 ft 257 kts 32°
2026-04-30 18:46 37.41064 14.64306 5053 ft 256 kts 31°
2026-04-30 18:46 37.42488 14.65657 5035 ft 258 kts 48°
2026-04-30 18:46 37.43325 14.67652 4935 ft 261 kts 73°
2026-04-30 18:47 37.43651 14.69899 4686 ft 259 kts 81°
2026-04-30 18:47 37.43858 14.72141 4427 ft 255 kts 83°
2026-04-30 18:47 37.43977 14.73624 4203 ft 247 kts 84°
2026-04-30 18:47 37.44139 14.75731 3830 ft 239 kts 84°
2026-04-30 18:48 37.44300 14.77791 3389 ft 234 kts 84°
2026-04-30 18:48 37.44458 14.79792 3079 ft 223 kts 85°
2026-04-30 18:48 37.44606 14.81633 3063 ft 199 kts 84°
2026-04-30 18:48 37.44736 14.83234 3080 ft 172 kts 84°
2026-04-30 18:49 37.44853 14.84654 3064 ft 157 kts 85°
2026-04-30 18:49 37.44965 14.86014 3050 ft 153 kts 84°
2026-04-30 18:49 37.45072 14.87316 2881 ft 147 kts 84°
2026-04-30 18:49 37.45176 14.88589 2688 ft 144 kts 84°
2026-04-30 18:50 37.45279 14.89838 2490 ft 143 kts 84°
2026-04-30 18:50 37.45384 14.91094 2296 ft 144 kts 85°
2026-04-30 18:50 37.45487 14.92354 2112 ft 144 kts 84°
2026-04-30 18:50 37.45591 14.93603 1916 ft 141 kts 85°
2026-04-30 18:51 37.45693 14.94836 1729 ft 140 kts 85°
2026-04-30 18:51 37.45793 14.96057 1530 ft 139 kts 83°
2026-04-30 18:51 37.45895 14.97277 1348 ft 140 kts 84°
2026-04-30 18:51 37.45998 14.98502 1149 ft 140 kts 85°
2026-04-30 18:52 37.46097 14.99729 959 ft 140 kts 83°
2026-04-30 18:52 37.46195 15.00954 718 ft 141 kts 84°
2026-04-30 18:52 37.46290 15.02177 479 ft 139 kts 83°
2026-04-30 18:52 37.46378 15.03395 379 ft 140 kts 82°
2026-04-30 18:53 37.46487 15.04615 227 ft 140 kts 80°
2026-04-30 18:53 37.46610 15.05826 68 ft 138 kts 81°
2026-04-30 18:53 37.46708 15.06782 52 ft 63 kts 86°
2026-04-30 18:53 37.46730 15.07154 60 ft 39 kts 85°
2026-04-30 18:54 37.46757 15.07492 56 ft 37 kts 80°
2026-04-30 18:54 37.46854 15.07769 54 ft 26 kts 46°
2026-04-30 18:54 37.46944 15.07768 56 ft 12 kts 257°
2026-04-30 18:54 37.46924 15.07641 57 ft 17 kts 262°
2026-04-30 18:55 37.46909 15.07472 60 ft 21 kts 265°
2026-04-30 18:55 37.46879 15.07034 56 ft 28 kts 265°
2026-04-30 18:55 37.46871 15.06851 57 ft 11 kts 296°
2026-04-30 18:56 37.46905 15.06822 55 ft 0 kts 349°